Location: Paderno d�Adda
(45.6667°N, 9.4333°E)
Time: 00:46:43
(UTC+00:00)

Cosmos 858 Rocket - Visible Passes

Search period start: 24 January 2021 00:00
Search period end: 03 February 2021 00:00
Orbit: 755 x 775 km, 74.0° (Epoch: 23 January)

Date Brightness Start Highest point End Pass type
(mag) Time Alt. Az. Time Alt. Az. Time Alt. Az.
24 Jan 7.3 02:44:35 13° E 02:44:35 13° E 02:45:37 10° E visible
24 Jan 4.3 04:24:52 78° WSW 04:24:52 78° WSW 04:30:00 10° SSE visible
24 Jan 5.5 17:17:36 10° SSE 17:21:56 26° E 17:25:32 13° NE visible
24 Jan 5.5 18:58:36 10° SW 19:03:39 45° WNW 19:05:49 30° N visible
25 Jan 5.6 03:48:45 38° SE 03:48:45 38° SE 03:52:03 10° SSE visible
25 Jan 5.9 05:29:02 17° WSW 05:29:02 17° WSW 05:31:44 10° SW visible
25 Jan 4.7 18:20:23 10° SSW 18:25:40 74° WNW 18:29:34 19° NNE visible
25 Jan 7.2 20:06:07 10° WNW 20:08:39 13° NW 20:09:49 13° NNW visible
26 Jan 6.9 03:12:44 15° SE 03:12:44 15° SE 03:13:43 10° SE visible
26 Jan 5.9 04:53:01 21° SW 04:53:01 21° SW 04:55:12 10° SSW visible
26 Jan 4.5 17:42:33 10° S 17:47:47 68° ESE 17:53:03 10° NNE visible
26 Jan 6.8 19:26:27 10° W 19:30:19 20° NW 19:33:27 13° NNW visible
27 Jan 6.5 04:17:04 15° S 04:17:04 15° S 04:18:01 10° S visible
27 Jan 5.0 17:05:08 10° S 17:10:01 40° ESE 17:14:56 10° NE visible
27 Jan 6.2 18:47:26 10° WSW 18:52:06 31° WNW 18:56:47 10° N visible
28 Jan 5.4 18:08:54 10° SW 18:14:01 49° WNW 18:19:09 10° NNE visible
29 Jan 4.6 17:30:45 10° SSW 17:36:03 81° WNW 17:41:22 10° NNE visible
29 Jan 7.2 19:16:07 10° W 19:18:57 14° NW 19:21:48 10° NNW visible
30 Jan 4.6 16:52:59 10° S 16:58:11 62° ESE 17:03:24 10° NNE visible
30 Jan 6.8 18:36:35 10° WSW 18:40:38 22° NW 18:44:41 10° N visible
31 Jan 6.1 17:57:41 10° WSW 18:02:26 33° WNW 18:07:14 10° N visible
01 Feb 5.3 17:19:13 10° SW 17:24:23 53° WNW 17:29:34 10° NNE visible
01 Feb 7.5 19:07:31 10° NW 19:07:40 10° NW 19:07:49 10° NW visible
02 Feb 7.1 18:26:09 10° W 18:29:14 15° NW 18:32:21 10° NNW visible
